Flag for U.S.A. Weather past 2 weeks in Canton, Ohio, U.S.A.

Now
66 °F

Mostly cloudy.


Feels Like: 66 °F
Forecast: 56 / 69 °F
Wind: 21 mph from Northwest

Location: Akron-Canton Regional Airport

Current Time: Jul 28, 2014 at 1:10:47 PM

Latest Report: Jul 28, 2014 at 11:51 AM


Visibility: 10 mi

Pressure: 29.79 "Hg

Humidity: 75%

Dew point: 58 °F

Location of CantonLocation

Historic Weather in Canton — Graph

°F

Canton temperature yesterday

Maximum temperature yesterday: 80 °F (at 12:51 PM)
Minimum temperature yesterday: 63 °F (at 11:51 PM)
Average temperature yesterday: 73 °F

Past Weeks' High & Low Weather Summary

 TemperatureHumidityPressure
High87 °F (Jul 21, 5:51 PM)94% (Jul 21, 4:51 AM)30.25 "Hg (Jul 21, 4:51 AM)
Low53 °F (Jul 25, 3:51 AM)36% (Jul 18, 12:51 PM)29.61 "Hg (Jul 27, 8:51 PM)
Average70 °F70%29.98 "Hg
* Reported Jul 13 11:51 AM — Jul 28 11:51 AM, Canton, Weather by CustomWeather, © 2014

Note: Actual official high and low records may vary slightly from our data, if they occured in-between our weather recording intervals... More about our weather records

Advertising

Canton weather history for previous 24 hours

 ConditionsComfort  
Time TempWeatherWind HumidityBarometerVisibility
11:51 AM
Jul 28
66 °FMostly cloudy.21 mph75%29.79 "Hg10 mi
10:51 AM65 °FLight rain. Mostly cloudy.15 mph85%29.76 "Hg6 mi
9:51 AM64 °FMostly cloudy.9 mph87%29.74 "Hg8 mi
8:51 AM63 °FLight rain. Low clouds.13 mph84%29.72 "Hg8 mi
7:51 AM62 °FLight rain. Low clouds.12 mph86%29.71 "Hg8 mi
6:51 AM62 °FPassing clouds.10 mph86%29.70 "Hg9 mi
6:00 AM63 °FPassing clouds.10 mph83%29.72 "Hg10 mi
4:51 AM63 °FLight rain. Mostly cloudy.12 mph87%29.68 "Hg10 mi
3:51 AM65 °FMostly cloudy.12 mph85%29.67 "Hg10 mi
2:51 AM64 °FFog.12 mph90%29.65 "Hg4 mi
1:51 AM64 °FFog.7 mph90%29.64 "Hg4 mi
12:51 AM64 °FLow clouds.6 mph90%29.65 "Hg8 mi
11:51 PM
Jul 27
63 °FPassing clouds.6 mph90%29.65 "Hg10 mi
10:51 PM64 °FPassing clouds.8 mph87%29.65 "Hg10 mi
9:53 PM64 °FLight rain. Overcast.12 mph88%29.69 "Hg6 mi
8:51 PM71 °FMore clouds than sun.9 mph76%29.61 "Hg10 mi
7:51 PM73 °FMostly cloudy.8 mph71%29.62 "Hg10 mi
6:51 PM74 °FPartly sunny.12 mph74%29.66 "Hg10 mi
5:51 PM77 °FBroken clouds.6 mph66%29.66 "Hg10 mi
4:51 PM79 °FScattered clouds.13 mph72%29.64 "Hg10 mi
3:51 PM76 °FLight rain. Broken clouds.9 mph82%29.66 "Hg7 mi
2:51 PM77 °FThunderstorms. Cloudy.6 mph79%29.70 "Hg7 mi
1:51 PM80 °FCloudy.7 mph69%29.73 "Hg10 mi
Weather by CustomWeather, © 2014

See weather overviewHow to use our weather pages